www.pogodaiklimat.ru

Погода и климат >> Архив погоды >> Россия >> Красноярский край >> Ирбейское


ПОГОДА в Ирбейском

  • Прогноз погоды в Ирбейском
  • Монитор погоды в Ирбейском

АРХИВ ПОГОДЫ в Ирбейском

Время (UTC), дата Ветер
(напр.,м/с)
 
Видим.   Явления Облачность Т
(С)
Тd
(С)
f
(%)
Тe
(С)
Тes
(С)
Комфортность P
(гПа)
Po
(гПа)
Тmin
(С)
Tmax
(С)
R
(мм)
R24
(мм)
S
(см)
09 11.08 С 1
{12}
4000 м слаб. ливневой дождь 10/10 600 м
[Cb cap]
+12.1 +10.4 89 +12 +12 1013.5 983.6
12 11.08 З 1 20 км {ливн. осадки} 6/3 1000 м
[Sc Ac trans Ci sp]
+15.7 +12.2 80 +16 +17 1012.9 983.4 +19.4 5
15 11.08 штиль 0 н/о 8/6 600 м
[Cb cap Ac lent]
+10.3 +9.7 96 +9 +9 1013.8 983.7
18 11.08 З 1 н/о 9/6 600 м
[Cb cap Ac lent Ci sp]
+12.1 +11.3 95 +12 +12 1013.5 983.6
21 11.08 штиль 0 н/о {ливн. осадки} 9/9 600 м
[Cb cap]
+11.0 +10.3 95 +10 +10 1013.6 983.6
00 12.08 З 2 20 км {ливн. осадки} 9/6 600 м
[Cb cap Ac lent Ci sp]
+12.4 +10.3 87 +11 +12 1014.2 984.3 +10.0 0.3
03 12.08 З 3 20 км 9/8 600 м
[Cb cap Ac lent]
+15.2 +11.0 76 +15 +15 1013.6 984.0
06 12.08 З 4 20 км 8/8 600 м
[Cb cap]
+17.7 +11.5 67 +17 +19 1011.7 982.4
09 12.08 СЗ 2
{11}
4000 м слаб. ливневой дождь {гроза} 9/9 600 м
[Cb cap]
+14.1 +10.4 78 +14 +14 1011.9 982.3
12 12.08 З 1 20 км {гроза, ливн. осадки} 8/4 600 м
[Cb cap Ac lent Ci sp]
+16.0 +11.4 74 +17 +17 1011.6 982.2 +19.9 0.4
15 12.08 СЗ 1 н/о 9/6 600 м
[Cb cap Ac trans Ci sp]
+11.8 +10.7 93 +12 +12 1012.3 982.4
18 12.08 З 1 н/о 9/6 600 м
[Cb cap Ac lent Ci sp]
+11.8 +11.0 95 +12 +12 1011.5 981.6
21 12.08 З 1 н/о 9/8 600 м
[Cb cap Ac lent]
+11.4 +10.6 95 +11 +11 1010.9 981.0
00 13.08 З 2 20 км 9/8 1000 м
[Sc Ac trans]
+12.4 +10.2 86 +11 +12 1010.7 980.9 +11.0
03 13.08 З 4 20 км 8/6 600 м
[Cb cap Ac trans]
+15.3 +8.0 62 +14 +16 1009.9 980.4
06 13.08 З 4
{11}
20 км 9/9 600 м
[Cb cap]
+16.4 +7.3 55 +16 +17 1008.9 979.6
09 13.08 З 1 20 км в посл. час ливневой дождь {гроза} 9/8 600 м
[Cb cap Ac lent]
+13.3 +10.4 83 +13 +14 1009.3 979.7
12 13.08 штиль 0 20 км в посл. час ливневой дождь {гроза} 9/9 600 м
[Cb cap]
+12.1 +11.2 94 +11 +12 1010.7 980.9 +17.5 2
15 13.08 З 1 н/о слаб. ливневой дождь 10/10 600 м
[Cb cap]
+11.2 +10.6 96 +11 +11 1011.4 981.5
18 13.08 З 1 н/о {ливн. осадки} 10/10 600 м
[Cb cap]
+11.2 +10.7 97 +11 +11 1011.0 981.1
21 13.08 З 1 н/о 9/9 600 м
[Cb cap]
+11.2 +10.7 97 +11 +11 1011.3 981.4
00 14.08 З 1 20 км {ливн. осадки} 9/8 600 м
[Cb cap Ac lent]
+11.5 +11.0 97 +11 +11 1012.2 982.3 +10.9 0.9
03 14.08 С 1 20 км 9/9 600 м
[Cb cap]
+13.9 +10.4 79 +14 +15 1013.1 983.4
06 14.08 СВ 2 20 км 9/9 600 м
[Cb cap]
+15.9 +10.0 68 +16 +17 1014.0 984.5
09 14.08 В 2 20 км 8/8 600 м
[Cb cap]
+15.9 +10.5 70 +16 +17 1014.7 985.2
12 14.08 В 1 20 км 8/6 600 м
[Cb cap Ac trans]
+15.6 +10.9 74 +16 +16 1015.6 986.0 +18.2
15 14.08 штиль 0 н/о 4/4 600 м
[Cb cap]
+9.8 +9.0 95 +9 +9 1016.7 986.5
18 14.08 СВ 1 н/о 3/3 1000 м
[Sc]
+7.5 +7.1 97 +6 +6 1016.8 986.3
21 14.08 СВ 1 н/о местами туман поземный 4/3 1000 м
[Sc Ac lent Ci sp]
+6.1 +5.8 98 +5 +5 1015.9 985.3
00 15.08 З 1 20 км 6/3 1000 м
[Sc Ac lent Ci sp]
+8.5 +8.1 97 +8 +8 1015.7 985.3 +5.0
03 15.08 В 3 20 км 8/3 1000 м
[Sc Ac lent Ci sp]
+16.5 +10.1 66 +16 +19 1013.7 984.2
06 15.08 ЮВ 3 20 км 8/3 1000 м
[Sc Ac trans Ci sp]
+21.2 +9.6 47 +23 +27 комфорт 1012.4 983.4
09 15.08 В 2 20 км 6/3 600 м
[Cu med, cong Ac lent Ci sp]
+23.1 +9.2 41 +25 +28 комфорт 1011.0 982.3
12 15.08 СВ 3 20 км 4/3 1000 м
[Sc Ac lent]
+20.0 +11.3 57 +22 +22 комфорт 1011.3 982.2 +23.2
15 15.08 В 1 н/о 6/3 1000 м
[Sc Ac lent]
+14.1 +10.3 78 +14 +14 1011.9 982.3
18 15.08 штиль 0 н/о местами туман поземный ясно +9.4 +8.8 96 +8 +8 1012.7 982.5
21 15.08 штиль 0 н/о местами туман поземный ясно +7.1 +6.8 98 +6 +6 1012.1 981.7
00 16.08 штиль 0 20 км 6/3 1000 м
[Sc Ci sp]
+10.1 +9.7 97 +9 +10 1011.3 981.3 +5.8
03 16.08 В 3 20 км 8/0
[Ci sp]
+19.6 +11.9 61 +21 +27 комфорт 1009.4 980.4
06 16.08 В 4 20 км 4/0
[Ci sp]
+24.0 +12.3 48 +26 +33 жарко 1007.4 978.9
09 16.08 В 4 20 км 6/0
[Ac trans Ci sp]
+24.1 +11.6 45 +26 +29 жарко 1006.7 978.2
12 16.08 В 3
{10}
20 км 8/3 1000 м
[Sc Ci sp]
+21.9 +11.5 52 +24 +24 комфорт 1007.0 978.3 +24.7
15 16.08 В 2 н/о 9/9 600 м
[Cb cap]
+18.4 +12.2 67 +19 +19 1007.8 978.8
18 16.08 штиль 0 н/о 8/4 600 м
[Cb cap Ac lent Ci fib]
+14.8 +11.4 80 +15 +15 1008.5 979.0
21 16.08 штиль 0 н/о местами туман поземный 6/3 1000 м
[Sc Ac lent Ci sp]
+11.2 +10.6 96 +10 +10 1009.2 979.3
00 17.08 З 1 20 км 4/3 1000 м
[Sc Ac lent]
+12.1 +11.7 97 +12 +13 1010.1 980.3 +9.8
03 17.08 Ю 1 4000 м дым 4/4 600 м
[Cu med, cong]
+19.2 +13.0 67 +22 +27 комфорт 1010.4 981.3
06 17.08 СВ 3 4000 м дым 4/3 600 м
[Cu med, cong Ac trans Ci fib]
+22.9 +13.5 55 +26 +32 жарко 1010.1 981.4
09 17.08 СВ 3 4000 м дым 8/6 600 м
[Cb cap Ac trans]
+23.9 +12.1 48 +26 +27 жарко 1010.3 981.7
12 17.08 штиль 0 20 км в посл. час ливневой дождь 9/8 600 м
[Cb cap Ac trans]
+18.3 +14.7 80 +19 +19 1012.0 982.8 +24.0 0.3
15 17.08 В 1 н/о местами туман поземный 8/8 600 м
[Cb cap]
+13.2 +12.6 96 +13 +13 1013.8 984.0
18 17.08 штиль 0 н/о туман 6/6 600 м
[Cb cap]
+9.9 +9.4 97 +9 +9 1013.7 983.6
21 17.08 штиль 0 н/о туман 9/9 600 м
[Cb cap]
+10.2 +9.9 98 +9 +9 1013.8 983.7
00 18.08 СВ 1 500 м туман 9/9 600 м
[Cb cap]
+11.1 +10.8 98 +11 +11 1014.4 984.4 +9.7
03 18.08 СЗ 1 20 км в посл. час ливневой дождь {туман} 9/9 600 м
[Cb cap]
+14.6 +11.9 84 +15 +16 1014.0 984.4
06 18.08 С 1 20 км {туман} 8/6 600 м
[Cb cap Ac lent Ci sp]
+19.5 +10.6 56 +22 +26 комфорт 1012.6 983.5

 

Местоположение метеостанции Ирбейское (Красноярский край, Россия): широта 55.63 долгота 95.47 высота над уровнем моря 252 м.

В архиве по умолчанию представлена погода в Ирбейском за последнюю неделю. Архивные данные за месяц целиком и за предыдущие месяцы, начиная с января 2011 года, Вы можете получить, выбрав интересующий диапазон дат из раскрывающегося списка и нажав кнопку "Ввод!".


*Определитесь, кто Вы:
робот инопланетянин человек

Внимание! Время в таблицах - всемирное. Для получения местного времени необходимо прибавить поправку, которая равна 7 ч.

Смотрите также архив погоды в соседних городах и на ближайших метеорологических станциях:

Погода в Агинском (Красноярский край, Россия) (56 км)
Погода в Солянке (Красноярский край, Россия) (61 км)
Погода в Канске (Красноярский край, Россия) (64 км)
Погода в Уяре (Красноярский край, Россия) (74 км)
Погода в Шалинском (Красноярский край, Россия) (108 км)
Погода в Абане (Красноярский край, Россия) (124 км)
Погода в Дзержинском (Красноярский край, Россия) (137 км)
Погода в Железногорске (Красноярский край, Россия) (140 км)
Погода в Анастасино (Красноярский край, Россия) (144 км)
Погода в Тайшете (Иркутская область, Россия) (162 км)

Пояснения к столбцам:

Ветер - указаны скорость ветра в м/с - средняя за 10 мин, порывы в срок и между сроками (в фигурных скобках) и направление, откуда дует ветер: С - северный, СВ - северо-восточный, В - восточный, ЮВ - юго-восточный, Ю - южный, ЮЗ - юго-западный, З - западный, СЗ - северо-западный.
Видимость - горизонтальная дальность видимости в метрах или километрах. При видимости от 1 до 10 км при отсутствии осадков обычно наблюдается дымка, при ухудшении видимости до 1 км и менее - туман. В сухую погоду видимость может ухудшаться дымом, пылью или мглою.
Явления - указаны атмосферные явления, наблюдавшиеся в срок или в последний час перед сроком; фигурными скобками обозначены явления, наблюдавшиеся между сроками (за 1-3 часа до срока); квадратными скобками обозначены град или гололедные отложения с указанием их диаметра в мм.
Облачность - указаны через наклонную черту общая и нижняя облачность в баллах и высота нижней границы облаков в метрах; квадратными скобками обозначены формы облаков: Ci - перистые, Cs - перисто-слоистые, Cc - перисто-кучевые, Ac - высококучевые, As - высокослоистые, Sc - слоисто-кучевые, Ns - слоисто-дождевые, Cu - кучевые, Cb - кучево-дождевые. Подробнее классификацию облаков см. в Атласе облаков (PDF).
T - Температура воздуха - температура, измеренная на высоте 2 м над землей.
Td - Температура точки росы - температура, при понижении до которой содержащийся в воздухе водяной пар достигнет насыщения.
f - Относительная влажность воздуха - влажноcть воздуха, измеренная на высоте 2 м над землей.
Te - Эффективная температура - температура, которую ощущает одетый по сезону человек в тени. Характеристика душности погоды. При расчете учитывается влияние влажности воздуха и скорости ветра на теплоощущения человека.
Tes - Эффективная температура на солнце - температура, которую ощущает человек, с поправкой на солнечный нагрев. Характеристика знойности погоды. Зависит от высоты солнца над горизонтом, облачности и скорости ветра. Ночью, в пасмурную погоду, а также при ветре 12 м/с и более поправка равна нулю.
P - Атмосферное давление - приведенное к уровню моря атмосферное давление.
Po - Атмосферное давление - измеренное на уровне метеостанции атмосферное давление.
Tmin - Минимальная температура - минимум температуры воздуха на высоте 2 м над землей.
Tmax - Максимальная температура - максимум температуры воздуха на высоте 2 м над землей.
R - Количество осадков - Количество выпавших осадков за период времени, мм. При наведении курсора мыши на число - период времени, за который выпало указанное количество осадков.
R24 - Количество осадков - Количество выпавших осадков за 24 часа, мм.
S - Снежный покров - Высота снежного покрова, см. При наведении курсора мыши на число - состояние снежного покрова и степень покрытия местности в баллах.